FALCON 9 R/B (54226 NORAD) Tracking and Keplerian Element Data

This shows tracking and keplerian element data for the satellite.

Feedback or suggestion? Click here.




ElementValue
Catalog54226
NameFALCON 9 R/B
Epoch Orbit22
Epoch Day325.13615478
Epoch Year2022
RAAN316.4704
Inclination27.4654
Eccentricity0.8081305
Argument of Perigee185.3507
Mean Anonmoly150.7934
Mean Motion1.3088434
Decay Rate5.1E-07
L11 54226U 22146B 22325.13615478 .00000051 00000+0 -43155-4 0 9991
L22 54226 27.4654 316.4704 8081305 185.3507 150.7934 1.30884340 222



Live tracking and technical data element details for FALCON 9 R/B (NORAD 54226). FALCON 9 R/B can be tracked NOW for your location showing map with azimuth and elevation plus other details from your city location.







IsCatalogInMostPopularTable: catalog: 54226, numindb: 23
Update: records affected: 1



GetName: 54226 FALCON 9 R/B

Hit Count: updated at: Sun, 04 Dec 2022 21:01:38 GMT